Regional Weather Roundup
Issued by NWS

Home | Current Version | Previous Version | Graphics & Text | Print | Product List | Glossary Off
Versions: 1 2 3 4 5 6 7 8 9 10 11 12 13 14 15 16 17 18 19 20 21 22 23 24 25 26 27 28 29 30 31 32 33 34 35 36 37 38 39 40 41 42 43 44 45 46 47 48 49 50

000
ASUS43 KMPX 251710
RWRMN
WEATHER ROUNDUP FOR MINNESOTA
NATIONAL WEATHER SERVICE TWIN CITIES/CHANHASSEN MN
1100 AM CST SUN FEB 25 2018


NOTE: "FAIR" INDICATES FEW OR NO CLOUDS BELOW 12,000 FEET WITH NO
SIGNIFICANT WEATHER AND/OR OBSTRUCTIONS TO VISIBILITY. N/A MEANS
CURRENT SKY AND/OR WEATHER CONDITIONS ARE NOT AVAILABLE.

MNZ060>063-068>070-251800-
   Twin Cities Metro

CITY           SKY/WX    TMP DP  RH WIND       PRES   REMARKS
TWIN CITIES    FAIR      21  12  68 W13       29.73R WCI   9
ST PAUL        FAIR      20  11  68 SW13G20   29.74R WCI   7
CRYSTAL        FAIR      20  10  65 W14       29.72R WCI   7
BLAINE         MOSUNNY   23  12  63 SW14G21   29.70R WCI  11
LAKEVILLE      FAIR      19  12  73 W13       29.75R WCI   7
EDEN PRAIRIE   FAIR      20  10  65 W14       29.74R WCI   7
SOUTH ST PAUL  FAIR      22  12  64 SW17      29.74R WCI   8
LAKE ELMO      FAIR      21  14  73 SW14      29.72R WCI   8
$$
MNZ001>005-007-008-013>017-022>024-027-028-251800-
   Northwest Minnesota

CITY           SKY/WX    TMP DP  RH WIND       PRES   REMARKS
BEMIDJI        LGT SNOW  18  13  80 W15       29.53R WCI   4
HALLOCK        PTSUNNY   18  14  86 W9        29.55R FOG     WCI   6
ROSEAU         PTSUNNY   19  16  86 W9        29.50R WCI   9
WARROAD        LGT SNOW  19  16  86 W13       29.48S WCI   7
THIEF RVR FALL CLOUDY    15   9  76 W12       29.56R WCI   2
CROOKSTON      FAIR      19  16  86 W10       29.59R WCI   8
FOSSTON        FAIR      18  10  73 SW12      29.57R WCI   5
DETROIT LAKES  PTSUNNY   23  19  86 W10       29.62R WCI  12
MOORHEAD       CLOUDY    25  19  80 W8        29.65R WCI  16
PARK RAPIDS    LGT SNOW  19  14  81 W21G30    29.57R WCI   3
MAHNOMEN       PTSUNNY   20  15  80 W13       29.58S WCI   7
$$
MNZ006-009>011-018-025>026-251800-
   North Central Minnesota

CITY           SKY/WX    TMP DP  RH WIND       PRES   REMARKS
BAUDETTE       CLOUDY    22  17  81 W10       29.45R WCI  11
FLAG ISLAND    CLOUDY    21  18  86 W12       29.44R WCI   9
INTL FALLS     CLOUDY    23  19  85 W14G23    29.41R FOG     WCI  11
WASKISH        CLOUDY    21  18  86 SW14      29.49R WCI   8
LONGVILLE      CLOUDY    21  14  73 W13G20    29.55R WCI   9
GRAND RAPIDS   LGT SNOW  24  17  74 W14       29.52R WCI  12
CRANE LAKE     CLOUDY    23  18  80 W8G16     29.41R WCI  14
ORR            CLOUDY    21  18  86 W12G17    29.40R WCI   9
COOK           LGT SNOW  21  18  86 W17       29.43R WCI   7
WALKER         FLURRIES  20  13  72 W14       29.55R WCI   7
$$
MNZ012-019>021-037-251800-
   Northeast Minnesota

CITY           SKY/WX    TMP DP  RH WIND       PRES   REMARKS
DULUTH         CLOUDY    25  18  74 W17G33    29.47R WCI  12
ELY            CLOUDY    21  18  86 W23G29    29.37R HAZE    WCI   5
HIBBING        CLOUDY    24  17  74 W10G21    29.46R WCI  14
EVELETH        MIX PCPN  25  18  74 W17G25    29.46R WCI  11
DULUTH HARBOR  CLOUDY    28  21  74 SW23      29.52R WCI  14
TWO HARBORS    LGT SNOW  32  21  64 W23G35    29.42R WCI  19
GRAND MARAIS     N/A     30  20  66 W17G35    29.32R WCI  18
G MARAIS ARPRT CLOUDY    21  14  73 W15G22    29.29R HAZE    WCI   8
$$
MNZ029>031-032-039>041-046>048-054>057-064-251800-
   West Central Minnesota

CITY           SKY/WX    TMP DP  RH WIND       PRES   REMARKS
FERGUS FALLS   CLOUDY    21  19  93 W21       29.66R FOG     WCI   6
WHEATON        MOSUNNY   27  19  74 W15G22    29.72R WCI  15
MORRIS         CLOUDY    25  18  74 W17       29.69R WCI  11
ALEXANDRIA     CLOUDY    22  17  81 W12       29.65R WCI  10
ELBOW LAKE     CLOUDY    23  20  90 W21       29.68R FOG     WCI   7
WADENA         MIX PCPN  18  12  79 W15G22    29.61R WCI   3
GLENWOOD       FAIR      21  16  79 W16       29.67R WCI   7
APPLETON       SUNNY     23  18  80 W7        29.73R WCI  15
BENSON           N/A     25  18  74 NW14      29.72R WCI  13
ORTONVILLE     SUNNY     27  19  74 W7        29.72R WCI  19
MADISON        SUNNY     28  21  74 W24       29.73F HAZE    WCI  14
WILLMAR        CLOUDY    19  16  86 W16       29.74R WCI   5
$$
MNZ033>034-036-042>043-049>051-058-059-251800-
   Central Minnesota

CITY           SKY/WX    TMP DP  RH WIND       PRES   REMARKS
ST CLOUD       CLOUDY    20  13  74 W15       29.68R WCI   6
SAUK CENTRE    CLOUDY    19  14  80 W15       29.67R WCI   5
PAYNESVILLE    CLOUDY    21  16  81 W14       29.70R WCI   8
AITKIN         FLURRIES  21  14  73 W14G22    29.56R WCI   8
PINE RIVER     FLURRIES  19  12  73 W10G17    29.62R WCI   8
BRAINERD       CLOUDY    20  12  71 W17       29.61R WCI   5
STAPLES        CLOUDY    19  12  73 W14       29.62R WCI   6
LONG PRAIRIE   FLURRIES  21  14  73 SW12      29.65R WCI   9
LITTLE FALLS   CLOUDY    21   9  58 W13G18    29.66R HAZE    WCI   9
LITCHFIELD     PTSUNNY   21  16  79 W14       29.73R WCI   8
BUFFALO        CLOUDY    21  12  67 W13G18    29.74R WCI   9
MAPLE LAKE     FAIR      22  14  70 W9G16     29.72R WCI  12
HUTCHINSON     CLOUDY    20  14  76 W14       29.74R WCI   7
$$
MNZ037-044-045-052-053-251800-
   East Central Minnesota

CITY           SKY/WX    TMP DP  RH WIND       PRES   REMARKS
PRINCETON      PTSUNNY   21  12  68 SW12G18   29.68R WCI   9
CAMBRIDGE        N/A     23  12  63 SW14G20   29.68R WCI  11
RUSH CITY      CLOUDY    22  15  74 SW8       29.66R WCI  12
MOOSE LAKE     LGT SNOW  25  18  74 W14G22    29.55R WCI  13
HINCKLEY       CLOUDY    23  18  80 SW13      29.62R WCI  11
CLOQUET        LGT SNOW  23  16  74 W14G26    29.51R WCI  11
MCGREGOR       CLOUDY    23  18  80 SW15G22   29.56R WCI  10
$$
MNZ071>073-080-081-089-090-097-098-251800-
   Southwest Minnesota

CITY           SKY/WX    TMP DP  RH WIND       PRES   REMARKS
MONTEVIDEO     PTSUNNY   27  18  69 W9G18     29.75R WCI  17
GRANITE FALLS  PTSUNNY   25  18  76 SW14      29.78R WCI  13
CANBY          SUNNY     26  19  76 SW17G25   29.76R WCI  13
MARSHALL       SUNNY     25  18  74 W17       29.78R WCI  12
REDWOOD FALLS  CLOUDY    23  17  78 W16G23    29.77R WCI  10
OLIVIA         PTSUNNY   23  18  80 W16       29.75R WCI  10
PIPESTONE      CLOUDY    21  18  86 W14       29.80R WCI   8
WORTHINGTON    CLOUDY    22  15  75 W17       29.82R WCI   8
JACKSON        SUNNY     21  14  73 W23G30    29.80R HAZE    WCI   5
TRACY          MOSUNNY   23  19  83 W12G20    29.77F WCI  12
SLAYTON        CLOUDY    21  17  86 W21       29.79S WCI   5
$$
MNZ065>067-074>077-082>085-091>093-251800-
   South Central Minnesota

CITY           SKY/WX    TMP DP  RH WIND       PRES   REMARKS
MANKATO        FAIR      21  12  68 W20       29.79R WCI   6
NEW ULM        SUNNY     19  12  73 W13       29.78R WCI   7
ST JAMES       SUNNY     21  16  79 W18       29.81R HAZE    WCI   6
FAIRMONT       SUNNY     23  16  74 W20       29.83R WCI   8
GLENCOE        FAIR      21  14  75 W8        29.75R WCI  11
FARIBAULT      FAIR      23  12  63 SW13      29.78R WCI  11
OWATONNA       FAIR      19  12  73 SW17      29.77R WCI   4
WASECA         FAIR      19  14  79 SW17      29.80R WCI   4
ALBERT LEA     FAIR      21  12  68 W13       29.80R WCI   9
$$
MNZ078>079-086>088-094>096-251800-
   Southeast Minnesota

CITY           SKY/WX    TMP DP  RH WIND       PRES   REMARKS
ROCHESTER      FAIR      21  15  78 W18       29.76R WCI   6
RED WING       FAIR      23  10  58 W13G18    29.75R WCI  11
STANTON        FAIR      23  13  66 W10G16    29.75R WCI  13
DODGE CENTER   FAIR      19  12  73 SW17      29.75R WCI   4
WINONA         FAIR      27  18  69 W14G25    29.77R WCI  15
AUSTIN         FAIR      21  14  73 W16       29.78S WCI   7
PRESTON        FAIR      23  16  75 W16       29.77S WCI   9
$$
ABBREVIATIONS USED IN REMARKS
   TC - TEMPERATURES IN CELSIUS
  WCI - WIND CHILL INDEX
   HX - HEAT INDEX
  VSB - VISIBILITY
$$



USA.gov is the U.S. government's official web portal to all federal, state and local government web resources and services.